IUS DEB, 43365

Orbit data source: Space-Track

IUS DEB, 43365 is space debris originally from a launch on Fri, 23 Jul 1999 UTC launched from the Air Force Eastern Test Range (AFETR). Debris objects in space refer to the collection of defunct objects orbiting the Earth. Examples of debris include non-operational satellites, rocket bodies, and fragments generated from explosions, collisions, or faulty payload assembly.

Loading next visibility...
Identifier
43365, 1999-040N
Orbit
Active
Country
Flag of USUS
Related business
Manufacturer
Boeing/Kent
Mission
Spacecraft
Bus & Motor
Unknown
Mass
Unknown
Launch date (UTC)
1999-07-23 (27 years ago)
Launch vehicle
Unknown
Launch site
Air Force Eastern Test Range (AFETR)
Object type
Payload
Rocket body
Debris
Shape & HBR
Unknown shape, 0.1 m
Radar Cross Section
Medium (>0.1 m² and <1 m²)

Expand to show TLE details & history
Last TLE update: 1 month ago

TLE from 1 month ago
0 IUS DEB
1 43365U 99040N   26227.13652096  .00000017  00000-0  00000-0 0  9992
2 43365  27.6632 161.1440 2805587 175.4762 187.7810  7.21616467357235
Epoch: 2026-08-15T03:16Z
TLE epoch observation values (Epoch: 2026-08-15T03:16:35.410Z)
Latitude
-0.00003°
Longitude
148.44468°
Altitude
8,087.778 km
Speed
4.459 km/s
True Right ascension
10h 44m 34s
True Declination
0° 00' 00"
Sunlit
Object was in daylight at epoch
Visualization orbit readout
Latitude
Unknown
Longitude
Unknown
Altitude
Unknown
Speed
Unknown
Apparent Right ascension
Unknown
Apparent Declination
Unknown
Sunlit
N/A
Visualization observer readout
Local Sidereal Time
15:59:59
Azimuth
Unknown
Elevation
Unknown
Doppler factor
Unknown
Orbital elements
Apogee altitude
8,111.084 km
Perigee altitude
1,762.172 km
Semi-major axis
11,314.765 km
Eccentricity
0.28056
Inclination
27.6632°
RAAN
161.144°
Arg. of periapsis
175.4762°
True anomaly
184.55817°
Mean anomaly
187.781°
Eccentric anomaly
186.07875°
Mean motion
1.80333 °/min
Orbital period
199.63 mins
BSTAR
0
Loading maneuver chart data...
Computing Atmospheric mass density...
Loading historical data...
Loading historical data...
Loading historical data...
Loading historical data...
Loading historical data...
Loading historical data...
Loading historical data...

Documentation

Showing up to 5 results
|